Wetbulb
45.17 41.22 40.72 46.82 48.72 48.31 48.41 46.31 44.55 46.76 48.30 47.03 45.42 45.59 47.75 49.70 50.68 50.67 50.38 52.00 53.90 54.57 57.15 59.74 62.09 68.00 72.08 72.98 71.36 70.78 71.72 73.08 72.79 71.64 71.54 71.01 71.18 71.50 72.67 73.19 73.89 74.05 73.64 73.61
42.04 39.58 46.32 47.94 48.22 47.50 46.93 45.58 45.84 47.95 49.17 47.52 46.88 46.14 48.34 48.74 49.71 50.66 51.43 51.79 53.41 55.06 55.66 57.84 60.64 62.28 70.57 72.12 71.99 71.75 72.65 73.57 72.74 72.16 72.14 72.01 72.17 72.54 72.94 73.18 73.70 73.45 73.40 74.02
37.94 43.16 45.92 44.78 44.72 44.68 45.82 44.35 45.10 44.75 47.12 48.28 46.33 45.27 47.63 49.54 50.63 51.07 51.76 53.15 53.37 53.85 55.11 56.28 57.84 61.66 62.93 66.00 71.13 71.54 72.04 73.28 74.45 73.98 73.41 72.98 73.24 73.16 72.83 73.27 73.10 73.58 73.68 73.80
38.82 43.49 43.79 43.48 42.37 44.56 41.48 47.30 45.96 44.70 44.16 40.26 46.97 38.29 45.78 48.33 48.78 49.97 51.67 52.54 53.20 53.55 55.01 56.39 57.43 58.85 61.61 63.89 65.43 65.78 69.09 71.78 73.93 75.38 73.79 73.20 71.58 70.96 72.56 73.69 73.47 73.58 73.96 73.48
37.96 38.93 40.30 41.08 42.06 45.38 42.86 47.15 45.39 44.70 43.33 42.03 42.64 40.79 45.42 49.23 48.12 49.97 51.72 52.71 53.44 54.69 55.19 55.74 57.24 58.31 59.45 62.90 64.11 65.94 65.07 64.50 67.56 72.22 74.61 73.23 72.50 72.61 73.23 73.79 74.21 74.19 74.14 73.93
40.34 44.86 42.98 41.68 44.39 45.05 45.87 44.09 44.02 43.53 42.48 34.71 41.32 40.91 42.53 46.48 48.99 50.98 52.71 53.11 53.83 54.49 55.48 55.92 56.84 58.11 58.27 59.52 62.02 65.68 65.40 64.24 65.56 67.43 71.73 73.14 71.80 71.37 70.93 72.17 72.85 73.30 73.57 73.48
37.70 38.63 43.35 44.67 40.65 43.07 43.32 39.89 32.31 31.18 32.79 32.94 42.08 39.49 42.91 48.44 50.40 51.48 51.01 53.64 54.58 55.46 55.63 54.69 55.24 55.89 57.16 58.46 61.29 63.48 62.34 62.59 65.48 67.36 66.97 71.47 72.50 73.06 71.95 71.72 71.78 71.25 71.22 71.85
30.43 30.95 39.83 43.54 41.67 39.54 41.27 39.90 33.05 26.41 30.47 34.52 41.48 36.40 42.02 48.71 50.56 50.24 50.58 51.25 52.28 52.56 53.98 54.32 55.67 56.91 57.54 58.73 60.37 61.02 60.70 61.35 63.39 66.12 67.38 67.30 71.69 71.80 72.01 71.97 71.88 72.26 71.78 71.82
30.09 30.81 40.39 42.93 43.57 43.15 39.64 36.72 42.73 35.35 36.82 34.04 38.18 42.05 45.88 47.36 48.04 49.10 49.42 50.51 51.71 52.93 53.39 54.19 55.42 56.87 57.97 58.58 59.35 60.78 61.21 61.56 63.14 65.54 68.37 69.38 69.10 70.48 70.53 71.16 71.22 71.82 72.29 71.73
33.34 28.27 35.53 38.46 41.99 43.37 40.63 43.91 34.45 35.65 26.78 25.13 34.56 37.21 39.84 44.13 45.35 48.26 48.88 49.23 49.99 51.34 52.63 54.10 55.18 55.04 56.56 58.13 59.73 61.01 61.42 60.46 61.30 64.76 67.64 69.14 69.90 71.27 71.87 72.00 71.52 71.68 72.41 72.50
35.71 32.92 32.61 37.61 36.38 32.94 36.37 37.13 37.30 36.77 36.28 29.20 28.71 34.81 45.50 45.29 47.56 47.97 48.23 48.43 49.22 50.29 50.94 52.54 52.57 53.83 54.91 56.57 58.29 59.48 61.41 62.74 62.72 62.50 63.11 66.90 69.32 70.31 71.28 71.57 71.69 71.60 72.60 72.16
35.87 32.10 27.99 31.23 37.86 39.23 37.95 33.79 32.97 29.27 27.73 36.22 35.08 34.79 46.60 46.18 46.92 48.02 47.34 47.46 47.75 48.34 49.59 50.48 51.59 52.42 53.30 53.62 55.22 58.09 59.88 61.37 63.57 65.24 65.46 65.16 66.14 68.22 69.98 70.81 71.49 71.67 71.25 70.45
35.63 30.56 25.55 29.18 34.89 37.51 33.95 32.11 33.45 33.00 31.80 28.42 28.90 34.90 46.67 46.67 46.20 46.87 46.54 46.92 47.27 47.58 48.73 49.38 49.50 49.96 51.34 52.04 52.60 54.48 57.60 58.68 61.00 62.64 64.87 66.47 66.61 66.35 67.59 69.97 71.46 70.41 69.60 68.93
36.94 31.98 28.29 23.81 26.01 31.47 30.10 33.06 35.14 32.47 27.45 29.40 31.49 33.60 37.46 41.44 43.98 45.08 44.85 45.81 46.63 46.87 47.79 47.59 47.93 48.63 49.19 50.03 50.81 52.93 54.75 57.21 58.45 59.53 61.93 64.30 66.50 67.54 67.54 68.77 69.59 68.01 66.62 65.25
35.24 26.91 30.30 30.68 32.05 32.01 31.47 31.65 32.85 31.61 32.73 28.60 32.11 33.48 38.15 40.86 41.89 43.14 43.97 44.12 44.44 44.69 45.02 45.96 46.97 47.73 47.90 48.76 49.49 50.68 53.10 54.68 55.85 56.96 58.62 61.35 62.96 63.93 65.76 67.09 64.56 63.68 64.35 64.43
35.34 27.36 29.97 25.48 31.24 31.89 29.75 31.86 32.63 32.95 33.34 33.30 34.04 33.90 40.70 42.43 43.32 42.76 42.69 43.07 42.86 43.59 44.76 45.50 45.39 45.86 46.75 47.51 48.63 49.39 50.95 52.56 54.15 54.97 56.12 58.35 60.66 61.18 60.62 59.74 62.72 62.65 62.07 61.65
32.43 29.24 26.38 22.67 30.16 29.62 24.08 30.24 32.51 33.16 34.65 34.18 30.58 35.79 39.95 39.52 40.21 40.80 41.38 42.38 42.35 43.16 44.10 44.80 45.49 46.11 46.56 47.71 49.14 49.08 50.13 51.59 51.91 53.45 54.49 56.08 58.06 58.94 57.23 54.34 52.18 52.08 52.09 54.12
30.69 29.04 28.35 23.98 26.50 17.90 31.15 36.42 35.82 33.57 34.83 36.45 36.21 37.23 38.56 39.26 40.90 42.02 43.02 42.40 42.59 43.36 43.91 44.89 45.58 46.29 47.55 48.84 48.83 49.50 49.68 50.19 50.57 52.14 52.42 54.57 55.74 56.58 40.86 51.31 46.63 43.39 48.17 48.01
35.39 31.52 26.20 22.47 23.21 27.95 31.32 34.51 33.73 32.62 32.63 37.73 37.21 38.23 39.38 40.78 41.56 41.11 43.89 44.67 44.39 45.03 45.76 46.05 46.88 47.21 47.80 48.02 48.73 48.82 48.72 49.73 49.74 50.50 51.82 52.00 53.84 55.41 46.85 38.51 37.60 36.15 36.88 37.60
34.14 34.06 28.40 26.07 21.43 18.66 30.79 36.06 38.78 37.61 27.84 38.90 39.08 38.66 38.83 39.84 33.89 38.39 43.62 44.46 44.98 45.93 46.31 46.12 47.26 47.61 47.50 48.03 48.69 48.00 47.76 48.53 48.82 50.18 51.63 51.94 52.17 53.35 53.98 45.34 37.78 37.78 42.97 38.33
27.51 28.30 24.67 24.95 23.35 27.69 35.68 37.96 39.15 25.42 29.60 39.02 40.08 40.13 39.83 37.34 38.64 42.35 44.41 44.51 45.60 45.78 46.14 46.94 46.87 46.60 47.29 48.18 48.10 47.50 48.27 48.00 49.57 51.18 51.65 51.49 51.88 52.77 54.66 47.26 42.66 42.63 40.95 40.58
26.72 25.00 24.65 26.82 23.43 20.81 38.39 37.46 30.67 36.17 39.78 40.16 40.39 40.52 39.89 41.06 41.62 42.54 43.38 44.02 44.83 44.95 45.65 46.65 46.25 46.57 47.67 48.11 48.21 47.02 47.54 51.03 50.76 50.85 50.96 50.96 51.52 51.50 52.66 44.24 40.86 39.74 40.22 39.25
25.61 29.84 27.68 28.39 28.15 36.95 38.39 37.27 40.08 41.12 39.36 39.65 39.95 40.60 41.14 40.91 41.35 42.47 42.37 43.55 44.36 45.10 45.60 46.38 46.10 46.38 47.55 48.25 48.18 47.71 49.50 50.77 51.14 51.03 51.08 51.11 51.15 49.58 49.28 40.32 36.88 37.60 38.85 38.82
32.93 35.33 30.55 30.44 33.92 35.62 37.72 40.02 40.70 40.54 41.10 41.76 42.22 41.79 41.28 40.58 41.84 41.71 42.64 43.22 44.08 45.17 45.52 46.11 46.13 45.72 46.36 47.98 47.63 48.88 49.47 50.53 50.82 50.18 50.55 49.87 40.68 42.13 39.96 40.50 38.33 38.15 37.42 37.24
31.99 33.86 31.33 31.27 34.69 36.29 37.98 40.01 40.75 41.10 41.83 41.24 41.58 41.52 41.25 41.51 41.48 42.16 42.67 43.55 44.14 44.86 46.23 46.48 45.75 46.08 46.17 47.38 47.67 48.77 49.77 50.55 49.48 49.26 48.60 48.92 46.71 41.95 37.24 37.96 38.49 38.31 38.97 39.35
34.66 32.73 29.85 29.97 36.44 35.91 37.19 40.65 41.70 40.54 40.38 41.54 40.45 40.76 41.96 41.19 40.64 41.13 41.17 42.53 43.15 43.90 45.78 45.82 46.70 46.51 46.80 47.28 47.56 48.32 49.96 49.82 49.08 47.36 47.72 43.04 39.41 38.87 37.78 36.70 35.24 36.10 36.69 35.96
MSLP
1006.35 1006.40 1004.43 1002.59 1001.93 1001.23 999.84 998.89 997.96 997.34 997.03 997.36 997.74 997.82 997.83 997.86 997.34 997.61 997.67 997.11 996.43 996.31 996.45 996.84 997.45 998.34 998.78 999.37 1000.23 1001.33 1002.61 1003.90 1004.85 1005.51 1005.99 1006.38 1006.68 1007.28 1007.70 1007.89 1008.17 1008.80 1009.63 1010.41
1005.25 1004.06 1003.19 1003.03 1001.60 1001.05 1000.14 998.97 997.50 996.98 996.75 997.03 997.31 997.49 997.57 997.23 996.82 996.84 997.24 997.10 996.52 996.27 996.19 996.23 996.69 997.88 998.64 998.89 999.47 1000.48 1001.59 1002.90 1003.98 1004.54 1004.92 1005.36 1005.57 1006.02 1006.67 1007.33 1007.64 1008.21 1008.88 1009.51
1003.71 1002.00 1003.32 1002.63 1001.78 1000.64 999.89 999.17 998.40 997.66 997.97 997.86 997.92 997.66 997.21 996.70 996.45 996.50 996.80 997.22 997.16 996.58 996.33 996.46 996.63 997.25 998.78 999.69 999.73 1000.14 1000.82 1001.77 1002.78 1003.51 1004.03 1004.33 1004.79 1005.14 1005.53 1005.96 1006.70 1007.21 1007.90 1008.49
1003.68 1002.67 1001.54 1001.84 1001.23 1001.03 999.66 999.59 999.79 999.35 999.07 998.15 998.75 996.95 996.57 996.43 996.02 996.12 996.27 996.85 997.20 996.91 996.38 996.35 996.65 996.89 997.71 998.78 999.94 1000.41 1000.72 1001.05 1001.61 1002.52 1002.83 1003.05 1003.19 1003.56 1003.96 1004.53 1005.46 1006.14 1006.90 1007.44
1003.25 1002.44 1001.53 1000.41 1000.44 1001.02 1000.00 1000.31 1000.17 1000.53 1000.11 999.84 998.77 997.58 995.39 994.92 994.45 994.30 994.74 995.59 996.05 996.50 996.60 996.62 996.63 996.89 997.22 997.76 998.75 999.56 1000.22 1000.63 1000.71 1000.99 1001.94 1002.43 1002.75 1002.75 1003.09 1003.60 1004.24 1004.97 1005.69 1006.53
1005.10 1003.37 1002.28 1001.21 1000.61 1000.90 1001.55 1001.41 1001.30 1001.29 1000.71 999.55 998.56 997.90 995.69 994.78 994.28 994.40 994.34 994.50 995.12 995.88 996.29 996.66 997.21 997.47 997.62 997.82 997.93 998.26 999.11 999.68 1000.11 1000.47 1000.86 1001.44 1001.86 1002.51 1002.73 1002.84 1003.28 1004.01 1004.69 1005.44
1005.30 1004.43 1003.35 1002.30 1001.39 1001.44 1002.09 1002.08 1002.22 1002.19 1001.35 998.79 998.62 997.99 995.38 994.54 994.18 994.39 994.32 994.16 994.73 995.72 996.45 997.40 997.95 997.99 997.92 997.70 997.84 998.08 998.43 998.87 999.38 999.82 1000.30 1000.74 1001.42 1001.96 1002.34 1002.42 1002.66 1003.43 1003.87 1004.32
1005.81 1004.47 1003.52 1002.77 1001.94 1000.96 1001.53 1002.22 1001.82 1000.99 1000.03 998.79 998.16 996.47 993.96 995.23 994.94 994.84 995.29 995.91 996.52 997.23 997.71 997.92 998.17 998.18 998.09 998.21 998.27 998.18 998.48 998.71 998.87 999.05 999.61 1000.29 1000.54 1001.13 1001.49 1001.79 1001.97 1002.33 1002.93 1003.46
1007.76 1005.95 1005.24 1003.33 1002.69 1002.49 1001.66 1001.75 1002.87 1002.65 1001.51 999.58 997.20 995.65 995.16 994.86 994.72 995.26 996.03 996.76 997.17 997.82 998.28 998.61 999.15 999.56 999.78 999.62 999.05 999.09 999.11 998.73 998.52 998.37 998.72 999.48 999.99 1000.44 1000.78 1001.16 1001.55 1001.66 1002.04 1002.69
1009.56 1007.64 1006.80 1005.38 1004.36 1003.90 1004.50 1003.72 1003.89 1004.32 1003.44 1001.56 998.88 996.39 994.60 994.57 994.60 995.44 997.03 998.41 999.16 999.55 999.71 999.86 1000.09 1000.39 1000.40 1000.22 1000.00 999.83 999.65 999.31 998.95 998.73 998.59 998.94 999.42 999.79 1000.31 1000.66 1000.95 1001.27 1001.48 1002.03
1010.40 1009.35 1007.39 1006.41 1005.15 1006.01 1006.13 1005.58 1005.66 1005.66 1004.03 1002.45 1000.60 998.17 996.58 997.24 996.70 997.11 998.41 999.48 1000.13 1000.57 1000.73 1000.91 1001.03 1000.98 1000.96 1000.68 1000.25 1000.04 999.86 999.42 999.21 999.28 999.20 998.98 999.08 999.35 999.76 1000.09 1000.57 1000.93 1001.21 1001.58
1011.61 1010.83 1008.66 1006.68 1006.82 1006.49 1007.27 1008.27 1008.38 1007.83 1006.85 1004.38 1002.74 1000.05 999.62 999.68 999.64 999.22 999.64 1000.40 1001.03 1001.48 1001.34 1001.29 1001.31 1001.26 1001.22 1001.08 1000.80 1000.41 1000.30 999.97 999.68 999.46 999.26 999.17 999.24 999.28 999.42 999.55 999.87 1000.43 1000.95 1001.57
1012.57 1011.59 1009.54 1007.26 1007.29 1007.28 1007.72 1008.68 1008.77 1008.89 1008.78 1006.55 1004.47 1001.96 1001.16 1000.91 1000.82 1001.06 1001.24 1001.57 1001.69 1001.80 1001.59 1001.58 1001.48 1001.46 1001.40 1001.31 1001.21 1000.97 1000.64 1000.63 1000.33 999.90 999.46 999.27 999.34 999.45 999.43 999.33 999.30 999.88 1000.64 1001.26
1013.57 1012.55 1011.20 1009.67 1009.38 1009.20 1008.17 1007.88 1008.10 1008.71 1008.32 1006.23 1004.88 1003.11 1002.89 1002.33 1001.63 1001.47 1001.77 1002.11 1002.51 1002.73 1002.28 1001.98 1001.81 1001.73 1001.79 1001.70 1001.50 1001.31 1001.09 1001.02 1000.76 1000.39 999.92 999.54 999.38 999.30 999.40 999.41 999.41 999.95 1000.58 1001.38
1013.72 1013.16 1011.98 1011.02 1009.94 1009.40 1008.55 1007.82 1007.27 1006.69 1006.19 1005.86 1004.68 1003.09 1002.11 1002.07 1001.84 1001.82 1002.04 1002.34 1002.16 1002.12 1002.27 1002.38 1002.07 1001.79 1001.66 1001.60 1001.63 1001.58 1001.47 1001.30 1001.08 1000.78 1000.44 1000.11 1000.27 1000.20 999.98 999.91 1000.28 1000.38 1000.67 1001.10
1013.72 1013.62 1012.91 1012.10 1010.76 1009.24 1007.97 1007.35 1006.85 1006.21 1005.63 1005.07 1004.05 1002.88 1001.82 1001.34 1001.46 1001.55 1001.75 1001.79 1001.66 1001.71 1001.97 1002.09 1001.96 1001.83 1001.68 1001.57 1001.49 1001.54 1001.58 1001.38 1001.24 1000.87 1000.71 1000.47 1000.24 1000.67 1000.85 1000.84 1000.90 1000.94 1001.01 1001.31
1013.61 1013.87 1013.49 1011.96 1010.41 1009.31 1008.18 1006.90 1005.61 1005.26 1004.84 1004.26 1003.09 1002.30 1001.60 1001.47 1001.46 1001.51 1001.41 1001.40 1001.54 1001.64 1001.78 1001.84 1001.87 1001.76 1001.59 1001.42 1001.35 1001.22 1001.12 1001.14 1000.99 1000.71 1000.51 1000.56 1000.63 1000.72 1001.38 1001.59 1001.56 1001.65 1001.58 1001.66
1012.94 1013.40 1013.77 1012.34 1011.26 1009.04 1006.68 1005.87 1005.53 1005.27 1004.62 1004.03 1003.27 1002.47 1001.89 1001.56 1001.48 1001.40 1001.38 1001.40 1001.46 1001.56 1001.67 1001.66 1001.59 1001.54 1001.47 1001.51 1001.44 1001.25 1001.05 1000.83 1000.65 1000.34 1000.18 1000.17 1000.35 1000.71 1001.50 1001.91 1001.95 1002.04 1002.23 1002.27
1012.22 1012.65 1013.06 1012.24 1010.26 1008.22 1006.54 1004.94 1004.80 1004.46 1003.96 1003.32 1002.74 1002.51 1002.41 1002.32 1002.03 1001.78 1001.61 1001.85 1002.23 1002.34 1002.14 1001.79 1001.74 1001.71 1001.73 1001.58 1001.35 1001.10 1000.77 1000.59 1000.26 999.98 999.88 999.94 1000.08 1000.31 1001.25 1002.02 1002.25 1002.18 1002.34 1002.65
1012.03 1012.41 1012.73 1011.70 1010.10 1007.68 1005.53 1005.02 1005.04 1005.06 1004.29 1002.75 1003.00 1003.03 1002.97 1003.19 1002.92 1002.20 1001.98 1002.65 1002.98 1002.89 1002.84 1002.57 1002.00 1001.91 1001.78 1001.47 1001.16 1000.66 1000.33 1000.20 1000.04 999.82 999.71 999.77 999.96 1000.01 1000.36 1001.64 1002.27 1002.35 1002.45 1002.78
1011.60 1012.07 1011.90 1010.97 1009.61 1007.52 1005.81 1005.18 1005.08 1005.18 1004.96 1004.34 1004.50 1004.25 1003.92 1003.86 1004.05 1003.65 1003.07 1002.58 1002.37 1002.28 1002.16 1002.10 1001.72 1001.32 1001.15 1001.16 1000.74 1000.24 999.98 999.73 999.70 999.67 999.61 999.76 999.84 999.85 1000.00 1001.37 1002.13 1002.45 1002.73 1003.10
1010.58 1010.51 1010.30 1009.99 1008.68 1006.99 1006.00 1005.69 1005.93 1005.63 1005.23 1004.93 1004.66 1004.56 1004.26 1004.19 1003.99 1003.69 1003.04 1002.28 1001.64 1001.12 1000.85 1000.78 1000.57 1000.27 1000.11 1000.14 1000.03 999.64 999.27 999.02 999.22 999.19 999.32 999.49 999.75 1000.03 1000.27 1001.21 1001.98 1002.43 1002.76 1003.06
1010.01 1009.78 1009.59 1009.41 1008.18 1006.68 1006.32 1006.05 1005.83 1005.47 1005.24 1005.28 1004.98 1004.66 1004.32 1003.72 1003.17 1002.83 1002.40 1001.78 1000.93 1000.24 999.77 999.55 999.31 999.06 998.86 998.74 998.69 998.47 998.38 998.64 998.65 998.70 998.86 999.27 999.53 1000.10 1000.34 1001.29 1001.81 1002.48 1002.66 1002.92
1009.42 1009.22 1008.78 1008.49 1007.71 1006.83 1006.16 1005.87 1005.56 1005.31 1005.06 1004.92 1004.84 1004.47 1004.15 1003.36 1002.83 1002.33 1002.05 1001.29 1000.43 999.57 998.67 998.45 998.12 997.82 997.59 997.62 997.54 997.51 997.80 998.11 998.14 998.06 998.21 999.10 999.93 1000.12 1000.50 1000.88 1001.45 1001.93 1002.20 1002.66
1009.92 1009.41 1008.61 1007.85 1007.09 1006.57 1006.06 1005.56 1005.13 1004.80 1004.63 1004.52 1004.34 1004.20 1003.62 1003.11 1002.53 1002.14 1001.42 1000.78 999.91 999.20 998.47 997.59 997.21 996.92 996.71 996.76 996.63 996.69 996.89 997.16 997.25 997.47 997.68 998.33 999.12 999.92 1000.34 1000.56 1000.73 1001.18 1001.40 1001.66
1009.04 1008.23 1007.71 1006.61 1006.23 1005.91 1005.28 1004.93 1004.72 1004.24 1004.06 1004.05 1004.15 1003.91 1003.62 1003.43 1002.71 1002.26 1001.36 1000.74 1000.04 999.10 998.32 997.47 996.66 996.11 995.88 995.82 995.60 995.58 995.75 995.84 995.89 996.38 996.97 998.07 998.90 999.62 1000.04 1000.34 1000.61 1000.96 1001.29 1001.50
Wind_Speed
25 18 21 29 29 24 28 30 30 24 22 28 28 25 24 23 20 16 19 20 19 22 22 21 18 15 19 21 21 21 20 18 14 14 13 13 12 12 12 12 15 15 14 17
25 26 31 26 27 28 28 30 28 25 18 19 19 21 21 22 24 20 19 18 18 16 17 18 19 15 13 17 18 20 19 18 16 13 13 12 12 12 12 11 13 15 16 16
28 29 30 30 28 29 28 26 24 17 17 13 11 20 23 22 22 21 19 19 21 20 19 18 19 18 15 14 13 16 18 18 17 18 13 12 12 11 12 13 12 15 17 17
26 30 26 30 29 28 27 23 23 19 20 18 22 20 23 23 24 23 21 21 18 21 21 18 18 19 18 16 16 16 16 19 18 19 16 17 14 14 13 12 12 13 18 18
21 27 30 25 27 28 28 22 22 24 21 21 19 15 15 18 23 24 25 22 23 22 20 18 17 16 15 15 15 13 16 18 18 18 18 14 16 12 11 11 15 15 15 18
23 13 17 26 23 24 25 24 20 18 20 20 27 23 20 19 20 21 22 19 18 18 17 15 12 14 15 17 16 15 18 18 17 15 17 19 18 16 12 13 11 11 11 13
15 15 19 10 20 26 16 18 10 12 10 16 23 24 20 15 22 16 8 11 10 7 10 6 12 16 16 15 13 10 11 15 16 16 16 18 19 16 17 14 11 12 11 11
5 14 20 15 15 20 21 22 8 15 17 21 23 23 24 24 25 2 5 4 4 5 7 8 8 11 9 9 10 12 15 16 16 14 15 14 17 12 13 14 12 11 12 12
10 2 16 9 4 7 17 23 22 20 16 15 16 26 25 25 14 9 6 5 6 4 1 4 5 6 8 10 9 9 10 12 13 12 10 12 13 13 12 15 13 11 12 10
8 10 3 7 2 6 9 13 18 10 9 19 13 18 15 19 26 9 10 7 5 5 5 5 5 5 5 5 5 6 8 11 11 11 10 10 11 12 12 11 13 14 12 13
12 7 9 12 3 4 6 3 5 7 14 9 17 18 16 13 9 11 12 8 6 4 3 2 4 5 6 6 6 5 7 8 8 9 10 10 10 11 11 11 12 13 11 11
8 7 12 9 7 4 11 4 4 3 6 9 9 14 8 12 8 7 10 6 5 3 4 4 3 4 5 6 7 6 7 7 7 8 8 8 9 10 11 12 13 12 12 10
10 4 9 4 6 1 5 3 3 4 4 5 6 7 10 10 7 6 7 7 9 8 9 7 4 4 6 7 8 8 7 8 9 9 8 8 9 11 12 12 11 11 13 11
5 9 11 10 7 7 13 12 8 7 5 10 9 16 15 17 10 12 7 8 10 13 13 9 8 7 6 7 8 9 8 9 9 10 10 8 10 9 10 11 8 7 8 10
5 7 14 16 19 17 18 18 16 16 14 13 17 24 20 16 15 16 14 14 15 11 10 11 13 11 10 9 8 9 9 9 9 10 10 9 8 9 10 4 5 7 10 11
5 6 14 15 18 18 17 17 18 19 19 19 21 23 21 21 17 15 15 14 13 10 12 13 12 11 12 12 9 8 10 10 10 10 10 10 8 7 8 5 6 8 9 9
14 9 9 14 12 14 13 17 14 16 18 19 20 21 20 17 17 18 17 16 15 15 15 15 15 14 13 12 11 12 11 11 11 11 10 9 10 8 7 4 3 3 5 7
16 14 8 10 13 13 6 4 9 13 16 17 18 17 18 18 17 17 15 15 16 15 16 15 14 13 12 12 14 14 14 13 13 12 12 9 9 6 3 5 5 4 3 5
11 11 6 6 11 15 18 10 6 12 14 14 13 12 14 13 15 13 12 11 14 15 17 11 12 11 14 16 15 15 15 14 15 14 12 11 10 8 5 4 4 3 4 3
7 8 9 9 9 8 2 5 7 8 13 4 7 8 12 14 14 15 21 19 17 16 14 18 15 14 16 17 18 17 17 16 16 15 13 12 12 11 6 6 4 2 4 2
5 4 12 12 13 11 9 11 12 9 9 18 15 17 21 19 16 23 23 23 22 21 20 20 21 19 19 18 18 19 18 17 16 15 14 13 13 12 10 5 4 5 6 7
12 9 9 7 9 14 9 9 9 14 21 23 24 24 24 23 22 22 24 24 22 22 22 20 19 19 19 20 18 20 21 15 14 15 14 13 12 9 2 7 6 6 8 9
13 13 12 15 12 25 22 21 21 20 19 20 22 21 22 24 24 23 22 24 24 24 21 20 19 20 19 20 18 19 18 15 13 12 12 12 9 9 5 7 7 6 8 8
16 15 13 17 18 22 20 20 23 21 18 20 22 23 23 25 25 24 21 19 21 23 20 19 19 19 19 17 19 18 16 16 15 14 12 8 6 6 5 5 7 8 8 8
15 17 16 20 21 22 20 21 19 22 21 23 20 22 23 24 24 22 21 24 20 21 23 19 19 18 20 18 19 18 15 15 17 16 12 8 7 7 7 7 8 8 9 10
16 17 13 16 18 18 20 20 23 23 22 20 19 21 23 24 25 24 23 23 23 21 20 21 22 20 21 20 21 20 18 18 17 15 10 6 6 5 6 6 4 2 6 9
Wind_Direction
202 209 212 219 219 230 243 230 232 241 243 211 218 245 238 236 236 233 231 243 234 226 223 223 198 223 213 210 192 186 181 187 190 198 196 206 202 205 207 211 206 202 197 208
214 215 221 225 235 226 236 249 251 237 227 228 232 243 245 242 238 222 231 244 250 237 236 231 208 196 216 217 204 188 187 183 195 196 204 206 208 206 207 207 209 204 203 202
224 214 222 229 233 241 223 236 238 249 237 254 245 249 246 233 235 234 238 248 250 250 236 225 235 186 187 215 228 221 205 199 194 209 202 208 215 216 202 206 204 202 204 203
232 236 220 222 228 234 242 220 245 252 244 229 210 250 234 230 241 236 235 224 234 245 246 242 224 230 201 193 198 217 226 215 207 200 221 212 211 213 214 208 205 203 201 205
220 230 238 235 216 229 239 243 221 243 239 245 249 251 254 241 231 228 223 223 228 232 232 245 244 246 240 215 206 203 213 223 224 205 207 215 222 221 218 208 211 204 198 204
274 308 272 247 246 220 234 246 246 248 241 243 236 245 246 246 238 244 249 230 211 215 232 236 254 264 247 245 243 210 200 217 218 219 208 213 218 221 221 226 205 211 205 195
231 235 258 259 239 235 225 223 216 218 220 231 228 237 242 238 254 253 310 240 205 210 216 230 255 250 245 247 247 237 244 226 221 210 220 215 220 224 220 224 209 199 207 202
293 208 216 221 241 219 211 209 211 209 218 232 224 234 230 236 251 329 271 330 140 184 199 236 233 243 264 261 270 257 237 236 237 225 208 224 218 218 224 221 225 206 208 206
330 71 337 343 320 249 220 216 226 263 281 277 252 217 233 244 183 189 170 227 8 26 22 11 319 315 318 296 280 262 261 266 260 250 216 217 217 219 225 224 226 233 206 209
333 301 307 304 224 266 315 327 205 219 213 243 251 250 242 218 231 228 101 74 57 31 17 358 322 344 310 308 297 289 275 270 271 258 246 225 231 225 221 233 218 222 216 209
342 312 293 290 199 73 340 277 327 330 239 240 235 245 258 23 49 141 118 99 81 69 36 3 335 335 351 351 348 328 313 295 269 259 269 266 235 228 226 227 220 229 222 201
344 315 307 332 309 337 82 53 54 311 357 241 255 257 30 83 63 55 86 80 65 13 346 328 317 325 339 351 348 351 346 328 317 292 272 261 260 258 244 226 221 209 225 197
330 315 304 204 182 77 71 119 145 167 198 248 281 201 162 139 92 53 33 9 351 356 331 312 332 324 334 335 338 340 343 341 330 310 292 267 253 257 255 245 230 204 211 199
288 299 301 304 309 284 297 301 199 159 249 271 251 270 282 307 324 308 308 311 288 295 302 308 308 318 322 318 332 325 330 331 333 329 317 307 301 288 257 255 236 185 169 177
2 283 305 314 316 312 300 293 288 282 265 251 268 277 285 289 304 305 311 290 283 284 277 291 302 309 309 312 315 311 324 320 328 322 321 310 296 311 312 239 199 175 185 192
342 286 317 301 286 277 278 288 293 280 274 274 277 274 284 287 285 281 283 279 278 274 268 281 279 281 296 299 295 306 300 307 316 315 318 314 304 300 296 313 242 207 196 192
285 277 293 282 297 324 293 267 266 257 259 266 273 282 288 291 297 294 292 290 291 286 283 281 280 285 287 290 303 293 302 307 299 305 305 316 311 303 282 251 202 239 188 171
260 261 275 282 291 266 261 304 296 276 273 282 287 280 284 299 306 303 302 304 292 283 287 286 278 279 290 303 300 299 293 297 294 292 299 300 303 288 214 241 203 185 179 178
244 239 252 258 263 279 285 283 355 322 312 305 283 282 293 316 323 295 290 15 5 349 333 291 288 298 299 298 294 294 288 289 289 285 286 297 304 293 172 220 216 186 140 154
272 238 249 268 285 281 298 341 354 307 297 317 287 286 320 329 312 308 324 331 308 300 296 299 285 285 286 290 295 289 287 286 287 287 285 288 292 293 267 201 193 191 145 131
210 238 243 251 255 267 280 305 312 259 295 337 319 312 314 312 310 305 304 302 298 290 282 274 272 271 269 274 279 277 276 273 280 284 283 280 282 290 286 164 163 153 139 138
287 276 265 261 257 264 324 341 337 317 307 308 310 306 301 299 295 291 292 291 289 288 283 275 271 267 264 265 262 263 267 269 270 272 270 268 272 291 177 161 162 158 158 151
272 271 271 275 277 300 300 299 294 299 305 304 299 297 298 294 292 292 293 291 291 289 285 277 271 268 263 262 257 256 255 266 271 272 264 262 268 280 164 165 160 166 169 166
291 292 287 279 273 279 285 296 295 293 298 300 301 299 294 289 293 296 296 291 290 290 288 282 278 273 269 264 260 255 254 260 265 263 256 220 238 244 181 172 174 178 178 176
291 297 289 289 289 287 287 287 297 298 302 298 297 300 298 297 294 292 294 293 291 290 290 283 273 270 269 268 265 262 255 247 246 256 257 233 230 210 192 197 183 191 196 184
269 270 271 276 283 287 286 292 289 294 301 306 308 303 301 301 298 299 298 297 295 292 294 288 283 279 276 272 270 264 257 251 245 240 236 203 205 194 198 188 150 163 175 150